GW3301 Weather Reports


Display with metric or nautical units.
time (UTC)temp
F
wind
direction
speed
MPH
gust
MPH
rain 1hr
in
rain 24hr
in
rain mn
in
humidity
%
barometer
mb
20260509124443 47 23 0.0 0.0 0.00 0.00 0.00 79 1020.2
20260509123927 47 23 0.0 0.0 0.00 0.00 0.00 80 1019.7
20260509123416 47 0 0.0 0.0 0.00 0.00 0.00 81 1020.2
20260509122912 46 23 0.0 0.0 0.00 0.00 0.00 80 1020.2
20260509122357 46 23 0.0 0.0 0.00 0.00 0.00 82 1020.1
20260509121847 46 23 0.0 2.0 0.00 0.00 0.00 80 1020.1
20260509121336 46 23 0.0 4.0 0.00 0.00 0.00 81 1019.8
20260509120316 46 23 0.0 0.0 0.00 0.00 0.00 81 1019.5
20260509115805 46 23 0.0 0.0 0.00 0.00 0.00 80 1019.4
20260509115255 46 23 0.0 2.0 0.00 0.00 0.00 80 1019.0
20260509114745 46 45 0.0 2.0 0.00 0.00 0.00 79 1018.9
20260509114235 46 23 0.0 2.0 0.00 0.00 0.00 82 1018.4
20260509113216 46 23 0.0 4.0 0.00 0.00 0.00 83 1018.4
20260509112705 46 23 0.0 7.0 0.00 0.00 0.00 84 1018.8
20260509112155 46 45 0.0 7.0 0.00 0.00 0.00 85 1018.6
20260509111645 45 23 0.0 4.0 0.00 0.00 0.00 88 1018.4
20260509111135 45 23 0.0 2.0 0.00 0.00 0.00 88 1018.4
20260509110624 45 23 0.0 2.0 0.00 0.00 0.00 90 1018.2
20260509110114 44 23 0.0 2.0 0.00 0.00 0.00 90 1018.1
20260509105604 45 23 0.0 2.0 0.00 0.00 0.00 90 1018.1
20260509105054 45 23 0.0 2.0 0.00 0.00 0.00 90 1018.1
20260509104545 45 23 0.0 2.0 0.00 0.00 0.00 89 1017.8
20260509104034 44 23 0.0 0.0 0.00 0.00 0.00 89 1018.2
20260509103014 44 23 0.0 0.0 0.00 0.00 0.00 90 1018.2
20260509102504 44 23 0.0 0.0 0.00 0.00 0.00 91 1018.1
20260509101443 43 23 0.0 0.0 0.00 0.00 0.00 91 1017.7
20260509100933 43 23 0.0 0.0 0.00 0.00 0.00 91 1017.4
20260509100423 44 23 0.0 0.0 0.00 0.00 0.00 91 1017.1
20260509095403 43 23 0.0 0.0 0.00 0.00 0.00 90 1017.2
20260509094853 43 23 0.0 0.0 0.00 0.00 0.00 91 1016.9
20260509094353 43 23 0.0 0.0 0.00 0.00 0.00 91 1016.6
20260509093833 44 23 0.0 0.0 0.00 0.00 0.00 90 1016.6
20260509093322 44 23 0.0 0.0 0.00 0.00 0.00 90 1016.8
20260509092812 44 23 0.0 0.0 0.00 0.00 0.00 90 1016.9
20260509091752 44 23 0.0 0.0 0.00 0.00 0.00 90 1016.2
20260509091241 44 23 0.0 0.0 0.00 0.00 0.00 90 1015.8
20260509090732 44 23 0.0 0.0 0.00 0.00 0.00 89 1015.7
20260509090222 44 23 0.0 0.0 0.00 0.00 0.00 90 1015.7
20260509085711 44 23 0.0 2.0 0.00 0.00 0.00 89 1015.6
20260509085209 44 23 0.0 2.0 0.00 0.00 0.00 90 1015.5
20260509084652 44 23 0.0 0.0 0.00 0.00 0.00 91 1015.6
20260509084141 44 23 0.0 0.0 0.00 0.00 0.00 90 1015.3
20260509083632 44 23 0.0 0.0 0.00 0.00 0.00 90 1015.7
20260509083121 44 23 0.0 0.0 0.00 0.00 0.00 90 1015.5
20260509082611 44 23 0.0 0.0 0.00 0.00 0.00 90 1015.6
20260509082101 45 23 0.0 0.0 0.00 0.00 0.00 89 1015.3
20260509081551 45 23 0.0 0.0 0.00 0.00 0.00 89 1015.4
20260509080530 45 23 0.0 0.0 0.00 0.00 0.00 89 1015.4
20260509080021 45 23 0.0 2.0 0.00 0.00 0.00 90 1014.9
20260509075511 45 23 0.0 2.0 0.00 0.00 0.00 90 1014.8
20260509075001 45 23 0.0 4.0 0.00 0.00 0.00 91 1014.8
20260509074450 45 23 0.0 4.0 0.00 0.00 0.00 92 1014.7
20260509073940 45 23 2.0 4.0 0.00 0.00 0.00 93 1014.6
20260509073430 45 23 2.0 6.0 0.00 0.00 0.00 93 1014.6
20260509072919 45 23 2.0 6.0 0.00 0.00 0.00 93 1014.5
20260509072409 46 23 2.0 4.0 0.00 0.00 0.00 92 1014.8
20260509071350 46 45 2.0 6.0 0.00 0.00 0.00 90 1014.9
20260509070840 46 23 2.0 6.0 0.00 0.00 0.00 89 1014.7
20260509065819 46 45 4.0 7.0 0.00 0.00 0.00 90 1014.7
20260509065309 46 45 3.0 7.0 0.00 0.00 0.00 89 1015.0
20260509064759 46 45 3.0 6.0 0.00 0.00 0.00 89 1015.0
20260509064248 47 45 3.0 4.0 0.00 0.00 0.00 89 1015.0
20260509063739 47 45 2.0 4.0 0.00 0.00 0.00 89 1015.2
20260509063228 47 45 2.0 4.0 0.00 0.00 0.00 89 1015.5
20260509062718 47 45 2.0 4.0 0.00 0.00 0.00 89 1015.6
20260509062208 47 68 0.0 2.0 0.00 0.00 0.00 91 1015.8
20260509061658 47 68 0.0 2.0 0.00 0.00 0.00 91 1015.5
20260509061148 47 68 0.0 2.0 0.00 0.00 0.00 91 1015.7
20260509060638 47 68 0.0 0.0 0.00 0.00 0.00 91 1015.6
20260509060127 47 68 0.0 2.0 0.00 0.00 0.00 90 1015.8
20260509055617 48 68 0.0 2.0 0.00 0.00 0.00 89 1015.6
20260509055108 48 68 0.0 2.0 0.00 0.00 0.00 88 1015.5
20260509054558 48 68 0.0 2.0 0.00 0.00 0.00 88 1015.7
20260509054050 48 68 1.0 2.0 0.00 0.00 0.00 86 1015.5
20260509053539 49 68 1.0 2.0 0.00 0.00 0.00 85 1015.6
20260509053027 49 68 0.0 2.0 0.00 0.00 0.00 84 1015.8
20260509052517 49 68 0.0 2.0 0.00 0.00 0.00 83 1015.6
20260509052008 49 68 0.0 2.0 0.00 0.00 0.00 82 1015.7
20260509051457 50 68 0.0 4.0 0.00 0.00 0.00 82 1015.7
20260509050946 50 68 1.0 4.0 0.00 0.00 0.00 81 1015.8
20260509045927 51 68 0.0 4.0 0.00 0.00 0.00 79 1015.7
20260509045419 51 68 2.0 4.0 0.00 0.00 0.00 78 1015.6
20260509044906 51 113 1.0 2.0 0.00 0.00 0.00 78 1015.5
20260509043848 51 113 0.0 2.0 0.00 0.00 0.00 78 1015.4
20260509043335 51 113 0.0 0.0 0.00 0.00 0.00 77 1015.2
20260509042826 51 113 0.0 0.0 0.00 0.00 0.00 76 1015.2
20260509042316 52 113 0.0 0.0 0.00 0.00 0.00 76 1015.2
20260509041805 51 113 0.0 0.0 0.00 0.00 0.00 76 1015.1
20260509041255 52 113 0.0 0.0 0.00 0.00 0.00 78 1014.9
20260509040746 52 113 0.0 0.0 0.00 0.00 0.00 75 1015.0
20260509040235 52 113 0.0 2.0 0.00 0.00 0.00 75 1015.1
20260509035726 53 113 0.0 2.0 0.00 0.00 0.00 73 1014.9
20260509035215 53 113 0.0 2.0 0.00 0.00 0.00 73 1014.8
20260509034155 53 113 0.0 2.0 0.00 0.00 0.00 72 1014.9
20260509033644 53 113 1.0 2.0 0.00 0.00 0.00 72 1015.0
20260509033134 53 113 1.0 2.0 0.00 0.00 0.00 73 1014.9
20260509032624 53 113 0.0 2.0 0.00 0.00 0.00 72 1014.6
20260509032114 52 113 0.0 2.0 0.00 0.00 0.00 74 1014.7
20260509031604 52 113 0.0 2.0 0.00 0.00 0.00 75 1014.7
20260509031054 51 113 0.0 0.0 0.00 0.00 0.00 78 1014.5
20260509030544 51 113 0.0 0.0 0.00 0.00 0.00 78 1014.5
20260509030034 51 113 0.0 0.0 0.00 0.00 0.00 78 1014.5
20260509025523 51 113 0.0 0.0 0.00 0.00 0.00 77 1014.3
20260509025014 52 113 0.0 2.0 0.00 0.00 0.00 76 1014.4
20260509024504 52 113 0.0 2.0 0.00 0.00 0.00 74 1014.6
20260509023953 52 113 1.0 2.0 0.00 0.00 0.00 74 1014.5
20260509022934 52 113 0.0 2.0 0.00 0.00 0.00 74 1014.3
20260509022423 53 113 1.0 4.0 0.00 0.00 0.00 74 1014.3
20260509021912 52 113 2.0 4.0 0.00 0.00 0.00 73 1014.3
20260509021402 51 113 0.0 0.0 0.00 0.00 0.00 76 1014.5
20260509015833 52 113 0.0 0.0 0.00 0.00 0.00 75 1014.3
20260509015323 52 113 0.0 0.0 0.00 0.00 0.00 77 1014.2
20260509014812 52 113 0.0 2.0 0.00 0.00 0.00 75 1014.0
20260509014302 53 113 0.0 2.0 0.00 0.00 0.00 74 1014.4
20260509013752 53 113 0.0 2.0 0.00 0.00 0.00 74 1014.2
20260509013242 53 113 0.0 2.0 0.00 0.00 0.00 74 1014.0
20260509012223 53 113 0.0 2.0 0.00 0.00 0.00 73 1013.9
20260509011712 54 113 0.0 2.0 0.00 0.00 0.00 71 1013.8
20260509011202 54 113 1.0 2.0 0.00 0.00 0.00 70 1014.2
20260509010651 54 113 0.0 2.0 0.00 0.00 0.00 71 1014.0
20260509005632 54 113 1.0 2.0 0.00 0.00 0.00 72 1014.2
20260509004111 54 113 0.0 0.0 0.00 0.00 0.00 75 1013.6
20260509003550 55 113 0.0 0.0 0.00 0.00 0.00 73 1013.5
20260509003041 55 113 0.0 0.0 0.00 0.00 0.00 72 1013.6
20260509002020 55 113 0.0 0.0 0.00 0.00 0.00 71 1013.4
20260509001519 55 113 0.0 0.0 0.00 0.00 0.00 70 1013.2
20260509001000 55 113 0.0 0.0 0.00 0.00 0.00 68 1013.5
20260509000451 55 113 0.0 2.0 0.00 0.00 0.00 69 1013.4
20260508235430 56 113 0.0 2.0 0.00 0.00 0.00 67 1013.9
20260508234410 55 113 0.0 2.0 0.00 0.00 0.00 65 1013.5
20260508233906 56 113 0.0 2.0 0.00 0.00 0.00 66 1013.6
20260508233349 55 113 0.0 2.0 0.00 0.00 0.00 66 1013.3
20260508232840 55 113 0.0 2.0 0.00 0.00 0.00 71 1013.3
20260508232330 55 113 0.0 2.0 0.00 0.00 0.00 70 1013.6
20260508231309 56 113 0.0 2.0 0.00 0.00 0.00 68 1013.3
20260508230759 56 113 0.0 2.0 0.00 0.00 0.00 64 1013.3
20260508230249 56 113 0.0 2.0 0.00 0.00 0.00 64 1013.5
20260508225739 56 113 0.0 2.0 0.00 0.00 0.00 64 1013.4
20260508225228 56 113 1.0 2.0 0.00 0.00 0.00 64 1013.3
20260508224208 56 113 1.0 2.0 0.00 0.00 0.00 65 1013.7
20260508223658 56 113 0.0 4.0 0.00 0.00 0.00 64 1013.4
20260508223149 56 113 1.0 4.0 0.00 0.00 0.00 65 1013.8
20260508222641 56 90 1.0 2.0 0.00 0.00 0.00 68 1013.8
20260508221107 55 90 0.0 2.0 0.00 0.00 0.00 72 1013.5
20260508220602 55 90 0.0 2.0 0.00 0.00 0.00 73 1013.4
20260508220047 56 90 0.0 2.0 0.00 0.00 0.00 73 1013.2
20260508215537 56 90 1.0 2.0 0.00 0.00 0.00 72 1013.4
20260508215028 56 90 0.0 2.0 0.00 0.00 0.00 72 1013.2
20260508214540 56 90 0.0 2.0 0.00 0.00 0.00 72 1013.4
20260508213457 56 90 2.0 4.0 0.00 0.00 0.00 70 1013.5
20260508212947 56 90 1.0 4.0 0.00 0.00 0.00 70 1013.3
20260508212436 57 90 1.0 4.0 0.00 0.00 0.00 70 1013.3
20260508211420 57 90 1.0 2.0 0.00 0.00 0.00 70 1013.0
20260508210356 57 90 1.0 2.0 0.00 0.00 0.00 68 1012.9
20260508205848 58 90 1.0 2.0 0.00 0.00 0.00 68 1012.8
20260508205335 58 90 0.0 2.0 0.00 0.00 0.00 69 1012.9
20260508204318 58 90 0.0 2.0 0.00 0.00 0.00 67 1012.8
20260508203806 58 90 0.0 2.0 0.00 0.00 0.00 66 1012.8
20260508203256 58 90 0.0 2.0 0.00 0.00 0.00 65 1012.7
20260508202745 59 90 1.0 2.0 0.00 0.00 0.00 65 1012.7
20260508202235 59 90 0.0 2.0 0.00 0.00 0.00 63 1012.6
20260508201725 59 90 1.0 2.0 0.00 0.00 0.00 62 1012.7
20260508201215 59 90 1.0 2.0 0.00 0.00 0.00 62 1012.6
20260508200704 59 90 0.0 2.0 0.00 0.00 0.00 61 1012.7
20260508200159 59 90 0.0 2.0 0.00 0.00 0.00 62 1012.6
20260508195644 59 90 0.0 4.0 0.00 0.00 0.00 60 1012.5
20260508195143 60 90 1.0 4.0 0.00 0.00 0.00 60 1012.4
20260508194624 60 90 1.0 4.0 0.00 0.00 0.00 59 1012.2
20260508194115 60 68 1.0 2.0 0.00 0.00 0.00 59 1012.4
20260508193607 60 68 0.0 2.0 0.00 0.00 0.00 59 1012.0
20260508192550 60 68 1.0 4.0 0.00 0.00 0.00 61 1012.2
20260508192033 60 68 2.0 4.0 0.00 0.00 0.00 60 1012.0
20260508191013 61 68 1.0 4.0 0.00 0.00 0.00 59 1012.3
20260508190507 60 68 1.0 4.0 0.00 0.00 0.00 58 1012.3
20260508185953 60 68 2.0 4.0 0.00 0.00 0.00 58 1011.9
20260508185443 60 68 1.0 4.0 0.00 0.00 0.00 56 1012.2
20260508183439 62 45 2.0 6.0 0.00 0.00 0.00 48 1012.5
20260508182344 63 68 2.0 6.0 0.00 0.00 0.00 51 1012.5
20260508181833 63 113 1.0 7.0 0.00 0.00 0.00 48 1012.6
20260508181322 63 90 3.0 7.0 0.00 0.00 0.00 49 1012.9
20260508180812 63 113 2.0 4.0 0.00 0.00 0.00 50 1013.0
20260508180302 63 113 2.0 4.0 0.00 0.00 0.00 48 1012.8
20260508175753 63 90 1.0 7.0 0.00 0.00 0.00 51 1012.8
20260508175242 63 68 2.0 7.0 0.00 0.00 0.00 43 1012.8
20260508174732 63 68 2.0 6.0 0.00 0.00 0.00 44 1012.8
20260508174222 63 68 2.0 7.0 0.00 0.00 0.00 44 1012.8
20260508173712 63 68 4.0 7.0 0.00 0.00 0.00 46 1013.0
20260508173202 63 45 2.0 6.0 0.00 0.00 0.00 49 1013.0
20260508172651 63 113 2.0 4.0 0.00 0.00 0.00 54 1012.8
20260508172141 63 90 2.0 6.0 0.00 0.00 0.00 53 1013.1
20260508171632 63 45 2.0 8.0 0.00 0.00 0.00 57 1013.1
20260508171121 62 45 2.0 8.0 0.00 0.00 0.00 58 1012.9
20260508170611 63 68 2.0 8.0 0.00 0.00 0.00 55 1012.8
20260508170101 63 45 0.0 7.0 0.00 0.00 0.00 55 1012.9
20260508165041 63 45 1.0 6.0 0.00 0.00 0.00 47 1012.9
20260508164530 63 90 0.0 6.0 0.00 0.00 0.00 46 1012.7
20260508163510 63 45 2.0 6.0 0.00 0.00 0.00 44 1013.0
20260508163006 63 68 2.0 9.0 0.00 0.00 0.00 43 1013.1
20260508162450 63 23 4.0 9.0 0.00 0.00 0.00 42 1013.0
20260508161939 62 68 1.0 4.0 0.00 0.00 0.00 49 1013.1
20260508161430 62 90 2.0 4.0 0.00 0.00 0.00 48 1013.1
20260508160920 63 90 2.0 7.0 0.00 0.00 0.00 44 1013.1
20260508155900 61 68 2.0 7.0 0.00 0.00 0.00 47 1013.3
20260508155349 61 45 3.0 7.0 0.00 0.00 0.00 43 1013.2
20260508154839 62 338 4.0 6.0 0.00 0.00 0.00 44 1013.1
20260508154329 62 45 2.0 7.0 0.00 0.00 0.00 50 1013.4
20260508153819 61 45 2.0 7.0 0.00 0.00 0.00 42 1013.1
20260508153309 62 23 2.0 8.0 0.00 0.00 0.00 42 1013.4
20260508151229 61 90 2.0 4.0 0.00 0.00 0.00 55 1013.6
20260508150719 61 68 2.0 7.0 0.00 0.00 0.00 56 1013.9
20260508150208 61 68 4.0 7.0 0.00 0.00 0.00 55 1014.0
20260508145658 61 45 3.0 4.0 0.00 0.00 0.00 61 1014.2
20260508145148 60 23 2.0 7.0 0.00 0.00 0.00 63 1013.9
20260508144127 60 23 3.0 7.0 0.00 0.00 0.00 60 1014.5
20260508143617 60 68 2.0 6.0 0.00 0.00 0.00 65 1014.4
20260508143107 59 68 0.0 6.0 0.00 0.00 0.00 63 1014.7
20260508142558 59 113 2.0 4.0 0.00 0.00 0.00 63 1014.8
20260508142048 58 68 2.0 4.0 0.00 0.00 0.00 66 1014.9
20260508141538 58 45 2.0 4.0 0.00 0.00 0.00 66 1015.0
20260508140007 58 23 0.0 4.0 0.00 0.00 0.00 69 1014.8
20260508135457 58 45 1.0 6.0 0.00 0.00 0.00 69 1015.1
20260508134947 57 23 2.0 6.0 0.00 0.00 0.00 68 1015.2
20260508134436 57 338 1.0 4.0 0.00 0.00 0.00 71 1015.2
20260508133926 57 0 2.0 4.0 0.00 0.00 0.00 72 1015.0
20260508133416 57 338 1.0 4.0 0.00 0.00 0.00 74 1014.9
20260508132907 57 338 1.0 4.0 0.00 0.00 0.00 69 1015.0
20260508132356 57 45 0.0 6.0 0.00 0.00 0.00 71 1014.9
20260508131846 57 23 0.0 6.0 0.00 0.00 0.00 72 1014.6
20260508131336 55 45 1.0 6.0 0.00 0.00 0.00 75 1014.5
20260508130826 55 0 3.0 11.0 0.00 0.00 0.00 75 1014.2
20260508130316 55 23 4.0 11.0 0.00 0.00 0.00 72 1014.3
20260508125805 54 45 6.0 11.0 0.00 0.00 0.00 71 1014.0